User: anonymous
Location: Columbia
(38.9520°N, 92.3340°W)
Time: 18:35:48
(UTC-05:00)
Language:

Iridium 22 - Orbit

View from above orbital plane
View from above orbital plane
View from above satellite
View from above satellite

Ground track
Ground track

The orbit data is extracted from the following two-line orbital elements,

1 24907U 97043E   14234.41738642  .00000292  00000-0  97345-4 0  9360
2 24907 086.4010 326.4417 0002351 111.5813 294.7787 14.34215961890233
Epoch (UTC): 22 August 2014 10:01:02
Eccentricity: 0.0002351
inclination: 86.4010°
perigee height: 776 km
apogee height: 779 km
right ascension of ascending node: 326.4417°
argument of perigee: 111.5813°
revolutions per day: 14.34215961
mean anomaly at epoch: 294.7787°
orbit number at epoch: 89023

The dashed part of the orbit path shows where the satellite is in the earth's shadow,  

DLR